Temp
81 81 79 78 75 75 75 74 73 72 71 70 69 70 71 71 71 70 70 69 67 67 68 67 66 67 70 71 73 72 72 71 68 71 75 74 73 72 74 76 78 79 81
80 78 78 76 74 72 73 74 73 70 69 68 69 69 70 70 70 70 70 69 67 66 66 66 66 70 67 68 72 69 69 70 69 65 69 72 71 72 72 71 74 79 78
77 79 76 74 73 71 72 72 71 68 67 68 69 69 69 69 68 69 69 68 67 67 67 67 67 67 67 69 69 70 71 71 71 70 70 72 72 72 71 72 72 73 77
79 74 73 72 71 72 72 71 69 68 67 67 68 68 69 69 69 69 69 68 67 67 68 68 67 68 67 67 69 68 69 70 69 71 70 70 71 71 72 70 71 74 72
69 69 71 72 71 69 69 67 67 67 67 67 67 67 69 70 72 69 69 68 67 67 67 69 69 67 65 66 71 68 67 69 70 70 69 70 69 69 67 70 70 71 72
67 67 68 68 67 66 66 65 65 65 64 65 66 67 68 73 63 65 68 69 67 67 67 67 68 67 65 63 64 64 66 67 65 68 69 66 66 68 69 69 69 67 67
70 67 65 65 65 63 65 64 63 63 64 64 65 66 67 69 64 64 65 71 69 68 67 68 71 71 67 68 64 63 64 63 63 67 65 66 65 67 66 66 65 66 67
69 68 66 66 63 63 63 63 63 64 64 64 65 66 67 69 63 64 65 70 69 68 68 69 68 68 67 67 69 70 70 71 70 73 69 68 69 69 68 68 65 67 71
69 68 67 67 65 65 63 63 64 65 65 66 67 65 67 68 62 62 65 69 70 68 68 68 68 68 62 61 68 69 69 72 65 63 63 62 62 62 64 71 69 68 67
69 68 68 68 66 64 64 64 65 66 67 70 67 68 65 68 61 60 64 72 69 71 69 68 62 65 60 59 67 68 67 70 71 71 72 70 68 68 62 67 70 67 66
70 67 68 68 67 67 65 66 66 66 67 67 67 68 69 68 67 58 59 70 72 70 71 71 73 60 57 56 56 67 68 69 68 69 71 72 72 72 72 70 67 68 67
68 66 67 67 69 68 65 65 65 65 65 65 67 69 72 70 60 58 57 58 64 71 71 73 71 58 55 54 59 60 58 59 72 69 71 70 70 71 71 69 67 67 69
64 67 66 65 67 66 65 65 66 66 69 67 69 70 71 73 72 57 56 57 58 67 73 68 58 55 54 58 57 58 58 70 70 66 66 66 70 72 68 68 67 66 66
62 64 63 65 65 66 68 68 69 68 69 69 69 69 71 71 71 72 71 68 59 63 65 69 66 60 55 61 62 67 71 72 70 66 64 68 71 69 69 69 67 67 65
62 63 65 69 66 66 68 69 69 70 69 70 71 71 71 71 73 66 67 73 73 69 67 71 70 71 71 71 71 71 71 69 67 70 68 67 68 69 68 69 67 65 63
62 64 67 67 66 68 68 66 54 56 53 52 52 63 71 58 52 51 48 49 50 50 66 70 70 71 70 71 70 70 71 68 70 70 68 68 67 67 67 67 66 64 62
65 65 67 67 68 68 68 68 67 61 51 49 47 47 48 54 48 46 46 47 46 49 65 62 69 70 70 70 70 70 69 71 69 69 68 68 67 67 63 65 64 63 62
64 59 68 69 69 69 68 69 71 70 69 71 53 53 47 45 45 44 46 46 63 56 63 60 70 71 70 69 70 70 70 70 69 68 67 67 66 65 64 63 63 61 61
67 68 70 69 69 68 70 70 71 71 71 72 74 60 57 46 45 44 44 61 65 71 69 70 71 71 71 70 69 69 68 69 68 68 67 66 65 64 63 63 62 52 53
67 65 67 69 69 69 70 70 71 71 71 72 74 75 76 64 70 71 64 61 67 70 71 71 71 70 70 69 69 69 69 68 67 67 66 66 65 64 63 62 62 60 60
65 66 66 69 70 70 71 71 72 73 73 74 75 74 56 71 71 74 74 62 61 72 71 71 71 70 70 69 69 70 68 68 67 66 65 65 64 63 63 62 61 61 60
67 70 70 71 71 71 72 73 72 73 74 75 76 74 50 69 69 73 72 70 73 72 73 71 71 72 72 71 70 69 67 67 67 65 65 65 64 63 62 61 61 60 60
71 71 72 72 72 66 69 73 74 74 75 75 75 73 66 72 74 74 73 74 73 71 72 71 70 70 70 70 70 68 67 67 68 68 66 65 64 63 62 61 60 59 59
73 71 71 73 72 73 74 74 74 63 73 70 66 67 72 75 75 74 74 74 73 73 72 70 70 70 70 69 69 69 68 67 67 67 65 65 64 61 61 60 60 59 58
72 72 72 73 73 74 74 74 74 73 69 71 76 76 76 75 75 75 75 73 72 72 70 69 69 68 67 66 67 67 57 44 56 53 64 63 62 60 60 60 59 58 58
72 73 74 74 74 73 73 74 74 74 71 75 76 76 74 74 74 74 73 71 70 70 69 69 69 67 67 67 67 51 38 36 48 37 60 61 60 60 60 59 58 58 58
MSLP
1010.69 1011.54 1012.36 1013.25 1014.07 1014.67 1015.13 1015.63 1016.22 1016.75 1017.28 1017.63 1017.89 1018.12 1018.05 1018.15 1018.33 1018.44 1018.72 1019.03 1019.12 1019.21 1019.25 1019.20 1019.16 1019.13 1018.72 1018.48 1018.31 1018.20 1018.01 1017.98 1017.61 1017.40 1017.38 1017.41 1017.10 1017.05 1016.77 1016.49 1015.96 1015.55 1015.17
1010.92 1012.00 1012.80 1013.59 1014.27 1014.85 1015.47 1016.07 1016.46 1017.01 1017.72 1017.90 1018.04 1018.34 1018.43 1018.46 1018.71 1018.90 1019.02 1019.31 1019.43 1019.46 1019.43 1019.44 1019.38 1019.13 1018.99 1018.91 1018.45 1018.53 1018.40 1018.37 1018.25 1017.88 1017.92 1017.47 1017.52 1017.36 1017.18 1016.82 1016.32 1015.67 1015.40
1011.09 1012.15 1013.08 1013.88 1014.65 1015.26 1015.67 1016.32 1016.97 1017.25 1017.78 1018.19 1018.33 1018.44 1018.71 1018.82 1018.99 1019.11 1019.36 1019.63 1019.86 1019.92 1019.87 1019.70 1019.67 1019.52 1019.30 1019.08 1018.83 1018.50 1018.37 1018.44 1018.34 1018.01 1017.73 1017.85 1017.71 1017.65 1017.16 1016.83 1016.44 1016.05 1015.63
1011.36 1012.59 1013.31 1014.00 1014.86 1015.39 1016.00 1016.52 1017.22 1017.63 1017.83 1018.06 1018.31 1018.64 1019.00 1019.17 1019.24 1019.28 1019.50 1019.74 1019.96 1020.17 1020.22 1020.13 1020.03 1019.91 1019.71 1019.51 1019.21 1019.08 1018.84 1018.44 1018.53 1018.18 1017.99 1017.91 1017.83 1017.79 1017.44 1017.04 1016.35 1016.07 1015.98
1011.32 1012.20 1013.10 1013.79 1014.77 1015.74 1016.46 1016.99 1017.61 1018.09 1018.19 1018.44 1018.52 1018.78 1019.10 1019.15 1019.28 1019.67 1019.69 1019.66 1019.85 1020.13 1020.34 1020.23 1020.18 1020.31 1020.28 1020.07 1019.44 1019.43 1019.11 1018.65 1018.56 1018.43 1018.31 1018.08 1017.94 1017.77 1017.60 1017.40 1016.86 1016.28 1016.00
1008.84 1007.99 1010.98 1012.80 1014.10 1015.28 1016.18 1016.81 1017.30 1018.02 1018.17 1018.42 1018.67 1018.68 1018.92 1018.94 1019.24 1019.62 1019.83 1019.73 1019.81 1020.03 1020.21 1020.40 1020.41 1020.43 1020.41 1020.27 1020.11 1019.88 1019.58 1019.20 1019.10 1018.83 1018.62 1018.57 1018.43 1018.17 1017.99 1017.71 1017.37 1016.91 1016.12
1009.93 1010.76 1010.93 1011.59 1013.59 1014.99 1016.21 1016.72 1017.23 1017.59 1018.47 1018.56 1018.78 1018.78 1018.71 1018.90 1019.24 1019.41 1019.64 1019.73 1019.86 1020.01 1020.20 1020.24 1020.14 1020.34 1020.47 1020.24 1020.10 1019.92 1019.88 1019.73 1019.64 1019.43 1019.22 1019.06 1018.80 1018.70 1018.67 1018.16 1018.02 1017.56 1017.00
1010.08 1011.40 1011.85 1012.92 1013.19 1014.43 1015.80 1016.55 1017.08 1017.55 1018.21 1018.61 1018.67 1018.83 1018.60 1019.04 1019.19 1019.34 1019.55 1019.58 1019.84 1020.04 1020.19 1020.27 1020.26 1020.38 1020.52 1020.32 1020.02 1019.81 1019.68 1019.61 1019.60 1019.25 1019.39 1019.33 1019.03 1018.92 1018.75 1018.60 1018.46 1017.76 1016.95
1009.92 1010.96 1011.42 1012.58 1013.21 1013.95 1015.27 1016.27 1016.77 1017.28 1017.93 1018.35 1018.52 1018.79 1018.88 1018.97 1019.32 1019.61 1019.56 1019.53 1019.59 1019.96 1020.07 1020.14 1020.22 1020.31 1020.50 1020.41 1019.99 1019.63 1019.40 1019.12 1019.56 1019.68 1019.73 1019.70 1019.54 1019.41 1019.15 1018.37 1017.72 1017.44 1016.98
1009.99 1011.15 1011.80 1012.52 1012.44 1013.51 1015.11 1016.15 1016.38 1017.07 1017.50 1018.12 1018.41 1018.62 1018.67 1018.99 1019.24 1019.64 1019.54 1019.19 1019.30 1019.43 1019.80 1019.89 1020.10 1020.28 1020.36 1020.40 1020.06 1019.62 1019.20 1018.80 1018.82 1018.78 1018.94 1018.84 1018.91 1018.74 1019.11 1018.66 1018.14 1017.62 1017.37
1009.98 1010.70 1011.09 1013.34 1013.54 1013.56 1014.85 1015.72 1016.18 1016.70 1017.31 1017.89 1018.04 1018.36 1018.54 1018.70 1019.01 1019.39 1019.58 1019.34 1019.04 1019.18 1019.16 1019.28 1019.46 1019.90 1020.08 1020.05 1019.87 1019.58 1019.14 1018.99 1018.86 1018.80 1018.66 1018.47 1018.40 1018.13 1018.00 1018.37 1018.51 1018.15 1017.68
1011.38 1011.60 1011.94 1012.94 1013.81 1013.78 1014.49 1015.41 1016.01 1016.54 1017.03 1017.41 1017.62 1017.67 1017.95 1018.32 1018.71 1019.04 1019.27 1019.44 1019.43 1019.05 1018.95 1018.99 1019.28 1019.56 1019.64 1019.55 1019.31 1019.07 1019.14 1019.09 1018.40 1018.34 1018.05 1017.91 1017.93 1017.89 1018.00 1018.31 1018.60 1018.50 1018.22
1012.01 1012.12 1012.55 1013.02 1014.06 1013.74 1014.28 1015.36 1015.88 1016.18 1016.30 1016.87 1017.16 1017.06 1017.16 1017.59 1018.10 1018.41 1018.75 1018.96 1019.17 1019.13 1018.83 1018.84 1019.05 1019.19 1019.24 1019.03 1018.84 1018.73 1018.64 1018.44 1018.04 1018.02 1017.93 1017.91 1017.72 1017.91 1018.17 1018.13 1018.31 1018.48 1018.25
1011.50 1011.77 1012.31 1013.36 1013.82 1013.63 1013.92 1014.71 1015.32 1015.63 1015.54 1015.81 1016.38 1016.71 1016.89 1017.26 1017.60 1017.75 1018.04 1018.46 1018.74 1018.84 1018.70 1018.63 1018.58 1018.64 1018.61 1018.50 1018.33 1017.98 1017.81 1017.52 1017.49 1017.54 1017.63 1017.63 1017.46 1017.50 1017.46 1017.80 1017.76 1017.82 1017.68
1010.51 1011.17 1011.93 1012.80 1013.16 1013.35 1013.90 1014.57 1014.99 1015.41 1015.47 1015.47 1015.77 1016.16 1016.47 1016.58 1016.77 1017.18 1017.43 1017.61 1017.69 1017.70 1017.86 1017.99 1017.77 1017.60 1017.41 1017.30 1017.22 1017.13 1017.07 1017.12 1017.12 1016.88 1017.11 1017.20 1017.12 1017.02 1017.10 1017.51 1017.56 1017.59 1017.33
1009.56 1010.53 1011.60 1011.96 1012.61 1012.88 1013.66 1014.63 1015.25 1015.26 1015.40 1015.82 1016.12 1016.16 1016.39 1016.72 1016.89 1017.05 1017.21 1017.44 1017.53 1017.53 1017.50 1017.07 1016.84 1016.67 1016.54 1016.42 1016.45 1016.31 1016.22 1016.31 1016.20 1016.36 1016.58 1016.69 1016.71 1016.66 1016.83 1017.09 1017.33 1017.30 1017.13
1008.53 1010.33 1011.15 1011.78 1012.18 1012.88 1013.40 1013.95 1014.37 1015.29 1015.38 1015.70 1015.89 1016.14 1016.34 1016.40 1016.63 1016.79 1017.04 1017.08 1017.11 1017.43 1016.98 1016.51 1016.15 1016.00 1015.88 1015.80 1015.79 1015.73 1015.51 1015.49 1015.91 1016.00 1016.12 1016.22 1016.40 1016.57 1016.99 1016.79 1016.90 1016.94 1016.75
1008.02 1009.43 1010.32 1010.91 1011.68 1012.40 1012.85 1013.36 1013.60 1013.75 1014.30 1014.65 1015.23 1015.27 1015.36 1015.85 1015.84 1016.01 1016.49 1016.69 1016.67 1016.58 1015.80 1015.74 1015.30 1015.30 1015.24 1015.23 1015.15 1015.11 1015.09 1015.25 1015.52 1015.67 1015.78 1015.93 1016.21 1016.38 1016.52 1016.56 1016.66 1016.73 1016.69
1007.78 1008.55 1009.48 1010.44 1011.45 1011.97 1012.28 1012.63 1012.87 1013.18 1013.62 1013.77 1013.98 1014.58 1014.68 1014.92 1015.15 1015.31 1015.71 1015.53 1015.12 1014.85 1014.90 1014.65 1014.67 1014.61 1014.60 1014.76 1014.75 1014.86 1015.01 1014.92 1015.13 1015.31 1015.48 1015.71 1015.98 1016.24 1016.27 1016.39 1016.39 1016.78 1016.91
1008.46 1008.38 1009.17 1009.88 1010.75 1011.53 1011.82 1012.02 1012.27 1012.68 1012.99 1013.02 1013.06 1013.12 1013.53 1014.42 1014.22 1014.42 1014.62 1014.67 1014.31 1014.03 1013.84 1013.94 1013.98 1014.11 1014.17 1014.32 1014.33 1014.48 1014.61 1014.78 1014.88 1015.14 1015.25 1015.51 1015.80 1016.01 1016.00 1016.09 1016.14 1016.18 1016.11
1008.40 1008.92 1009.37 1009.96 1010.51 1011.04 1011.29 1011.31 1011.72 1012.00 1012.08 1012.11 1012.11 1012.30 1013.08 1013.30 1013.23 1013.04 1013.16 1013.66 1013.74 1013.43 1013.47 1013.56 1013.58 1013.75 1013.81 1013.92 1014.05 1014.16 1014.31 1014.38 1014.63 1014.92 1015.15 1015.37 1015.56 1015.63 1015.78 1015.89 1015.92 1015.94 1015.83
1008.18 1008.60 1009.07 1009.41 1010.15 1010.64 1010.75 1010.95 1011.15 1011.30 1011.39 1011.41 1011.58 1011.86 1012.80 1012.68 1012.42 1012.26 1012.32 1012.83 1012.91 1012.90 1012.94 1013.11 1013.19 1013.31 1013.44 1013.64 1013.82 1013.91 1014.08 1014.21 1014.35 1014.66 1014.86 1015.02 1015.21 1015.35 1015.45 1015.48 1015.50 1015.43 1015.30
1007.53 1008.11 1008.46 1009.21 1009.70 1009.99 1010.44 1010.40 1010.61 1010.84 1011.00 1011.17 1011.32 1011.56 1011.78 1011.72 1011.69 1011.82 1011.97 1012.17 1012.56 1012.68 1012.72 1012.87 1012.98 1013.14 1013.32 1013.54 1013.77 1013.96 1014.03 1013.95 1013.95 1014.05 1014.32 1014.52 1014.72 1014.86 1014.98 1014.97 1014.97 1014.88 1014.75
1007.25 1007.72 1008.35 1008.72 1009.13 1009.29 1009.56 1009.67 1010.05 1010.41 1010.52 1010.96 1011.33 1011.38 1011.35 1011.30 1011.38 1011.50 1011.72 1011.96 1012.12 1012.21 1012.37 1012.62 1012.73 1012.88 1013.09 1013.38 1013.56 1013.70 1013.78 1013.90 1013.89 1013.92 1014.14 1014.08 1014.13 1014.31 1014.65 1014.58 1014.45 1014.32 1014.29
1007.17 1007.63 1008.04 1008.27 1008.56 1008.75 1009.00 1009.25 1009.50 1009.88 1010.30 1010.35 1010.34 1010.70 1010.82 1011.08 1011.21 1011.32 1011.49 1011.67 1011.81 1011.95 1012.12 1012.37 1012.56 1012.80 1012.99 1013.09 1013.30 1013.40 1013.54 1014.04 1014.20 1013.97 1013.83 1013.95 1014.04 1014.20 1014.29 1014.16 1014.00 1013.84 1013.70
1007.14 1007.50 1007.65 1007.93 1008.24 1008.45 1008.54 1008.72 1009.12 1009.48 1009.92 1009.86 1010.01 1010.29 1010.56 1010.71 1010.82 1011.02 1011.25 1011.47 1011.57 1011.66 1011.90 1012.01 1012.16 1012.47 1012.62 1012.64 1012.77 1013.22 1013.68 1013.96 1013.98 1014.24 1013.83 1013.80 1013.86 1013.82 1013.72 1013.55 1013.44 1013.23 1012.95
Wind_Speed
14 13 13 11 11 10 9 10 9 9 7 7 6 5 6 6 5 6 7 6 7 6 5 5 6 5 4 4 3 4 4 2 4 3 4 6 7 9 9 9 7 6 3
12 11 11 11 11 11 10 10 10 9 6 6 7 7 7 7 6 6 6 6 6 6 6 6 6 5 5 4 4 5 6 4 2 5 5 5 7 10 9 9 7 5 6
14 13 12 12 11 10 11 10 9 9 8 6 7 8 7 7 6 6 7 7 7 6 6 7 7 6 7 6 5 5 5 4 3 4 4 5 6 8 8 8 7 6 4
13 11 12 12 11 10 10 10 9 8 8 8 7 7 7 6 7 8 8 7 7 6 6 7 7 6 6 6 6 5 5 4 4 4 4 5 6 6 8 9 8 6 6
14 12 13 13 11 11 10 10 9 7 6 7 8 7 6 7 6 7 7 7 7 6 6 5 7 7 8 7 4 5 4 4 5 4 5 4 6 7 9 8 8 7 3
20 23 19 16 15 13 12 11 10 8 8 7 7 7 7 4 9 7 6 6 6 6 5 5 5 4 6 6 4 4 4 3 4 5 4 5 6 7 8 8 8 9 6
16 14 17 18 16 12 12 11 9 10 8 7 7 6 7 5 6 10 8 5 5 5 4 4 2 4 2 4 2 1 4 4 4 4 6 6 6 7 7 7 8 8 7
16 14 14 14 15 14 12 10 10 9 9 8 7 6 5 4 5 9 10 6 5 4 4 2 2 3 4 5 3 1 3 3 3 3 4 5 5 6 4 5 5 7 3
16 17 17 16 16 16 14 13 11 10 9 8 7 7 5 5 5 5 8 6 6 6 4 3 2 3 3 5 4 3 2 1 6 2 1 2 3 4 5 6 5 6 7
16 16 15 15 17 17 14 13 11 10 9 7 8 7 6 6 5 6 7 4 6 5 5 4 6 6 4 3 5 5 5 4 3 3 1 1 2 2 1 4 5 5 5
16 15 18 13 14 15 15 12 11 11 9 9 8 7 7 7 7 7 8 5 4 5 4 4 4 4 6 5 5 7 6 3 2 4 4 4 4 5 4 4 4 5 5
8 12 13 14 11 11 14 12 11 10 10 9 7 7 6 6 8 10 10 10 5 5 4 3 3 6 6 7 7 4 7 7 6 4 5 5 4 4 5 4 2 4 3
10 13 13 12 10 12 13 11 10 10 9 8 7 7 6 5 6 11 10 12 11 8 6 4 4 6 8 9 9 5 5 7 6 6 5 5 4 2 3 3 3 3 5
11 13 11 12 11 11 10 10 10 10 9 8 7 6 5 5 5 6 8 9 12 10 9 8 5 6 8 8 7 7 7 7 7 7 6 6 4 5 3 2 4 5 7
14 11 12 11 12 11 10 9 9 9 8 8 8 6 6 6 6 5 6 7 8 8 6 7 7 7 7 7 6 7 6 6 7 7 6 6 7 4 4 3 4 6 8
13 11 11 11 10 10 10 9 3 2 8 6 2 5 5 9 5 7 9 8 5 9 6 9 9 8 8 8 7 7 6 7 6 6 5 6 6 5 4 4 4 6 7
15 13 11 9 10 10 11 10 10 7 7 9 9 10 11 12 5 10 8 5 4 7 8 5 9 9 8 7 7 7 7 5 3 5 5 6 5 5 4 5 6 6 7
14 14 11 11 10 11 10 9 8 8 8 8 10 12 14 14 15 7 9 8 4 7 7 8 10 9 8 7 6 6 5 5 5 5 5 5 5 5 5 6 6 7 7
15 13 12 10 10 10 9 9 8 7 6 6 5 7 9 3 2 4 11 6 7 9 7 9 9 8 6 6 5 5 5 5 4 5 5 5 5 5 6 6 6 4 5
11 14 12 12 11 11 9 9 8 7 6 6 6 6 3 2 6 6 6 7 7 6 6 7 6 5 5 5 4 4 4 4 5 5 5 4 4 5 7 6 6 7 8
7 11 12 10 10 9 9 9 7 7 7 6 7 4 4 6 5 4 5 4 5 6 5 5 4 5 4 4 3 4 5 6 5 5 5 5 5 6 6 6 7 7 8
9 11 11 11 10 9 8 7 7 7 7 6 5 4 6 6 6 6 5 5 6 5 4 4 4 4 3 3 4 5 6 7 6 6 6 6 6 7 6 7 8 8 9
11 12 11 10 10 8 8 7 6 6 5 5 5 4 3 6 5 5 4 4 3 3 3 4 4 4 3 3 3 4 6 8 8 7 7 7 7 7 7 8 9 10 9
11 11 12 10 8 9 8 7 6 7 6 4 2 3 4 4 4 4 3 3 3 3 3 4 4 4 3 3 4 5 5 6 6 7 9 9 9 7 8 9 10 12 10
12 12 10 9 7 7 7 6 6 6 7 6 4 2 2 3 3 2 2 3 3 3 3 4 4 4 5 5 7 9 6 3 8 6 7 9 9 9 10 10 11 11 12
11 11 8 7 6 5 5 5 5 5 5 5 4 3 3 3 2 2 3 4 4 4 5 4 5 6 5 6 7 4 1 5 7 8 7 7 8 9 9 11 14 11 12
Wind_Direction
173 172 165 158 148 146 141 138 135 128 131 123 120 117 108 102 106 108 101 101 89 80 69 67 66 47 49 62 66 55 44 359 316 335 358 18 9 4 1 354 348 335 5
158 158 151 142 142 139 136 131 134 125 123 124 130 118 113 110 112 122 113 102 89 80 76 78 64 60 61 60 79 50 40 47 19 5 24 14 11 360 353 348 341 353 354
150 151 143 141 138 135 135 134 131 131 131 133 132 130 130 121 121 114 109 100 89 85 82 77 67 61 60 57 42 37 52 50 45 13 17 28 7 16 360 6 357 344 14
141 143 144 146 146 144 139 138 142 138 134 136 135 130 132 123 112 117 121 118 107 93 81 71 66 58 53 54 57 51 41 35 53 32 32 28 19 20 14 7 358 4 12
140 147 157 147 142 134 139 134 131 131 125 131 136 136 141 141 135 136 131 117 109 100 89 89 73 57 49 32 23 44 34 47 48 37 30 18 21 8 14 6 2 356 60
178 154 154 151 143 145 147 142 138 135 143 151 155 152 154 163 140 148 137 117 115 126 122 107 100 88 59 34 24 18 17 29 51 7 11 10 10 0 12 360 5 357 1
165 161 151 146 144 143 143 146 149 150 154 159 163 167 154 156 178 174 160 139 136 138 137 119 102 69 20 28 54 50 79 50 24 7 8 10 342 3 344 343 10 354 352
164 161 140 147 134 139 151 157 153 151 156 168 170 175 156 147 146 177 175 172 163 160 162 133 33 10 23 349 357 58 44 49 46 22 18 357 351 337 323 320 328 320 5
167 162 151 158 151 150 157 164 157 156 164 170 169 166 164 138 133 157 185 187 194 202 206 233 294 291 44 353 307 303 293 286 155 167 297 323 316 345 350 306 345 330 352
162 162 161 168 154 152 158 169 162 170 166 173 168 168 148 157 169 172 197 177 185 210 216 224 219 269 314 313 303 285 288 328 306 319 350 200 344 24 292 334 313 317 342
160 165 157 169 162 153 160 167 164 168 165 180 178 175 188 193 183 193 209 198 200 197 218 216 234 206 270 278 284 271 271 322 226 248 270 296 340 0 349 350 321 296 320
155 148 154 156 175 158 157 164 166 166 171 179 191 203 208 217 216 196 207 236 221 225 232 235 241 222 258 280 284 300 249 252 252 257 264 290 317 351 8 2 0 318 305
180 170 163 161 178 158 158 166 171 175 176 187 206 217 221 213 224 204 207 220 225 239 252 263 293 269 263 259 232 245 230 234 242 238 254 259 275 329 298 267 244 270 261
167 164 155 175 173 163 167 174 187 189 184 180 196 214 225 238 240 234 217 215 228 227 239 238 253 277 276 276 277 241 248 256 261 249 250 256 264 240 251 265 296 314 309
162 161 168 176 177 168 181 186 191 196 197 186 197 208 225 228 232 213 215 211 220 221 231 241 246 250 259 259 265 270 262 249 242 248 242 242 250 256 259 255 289 306 306
149 153 176 170 178 174 178 181 227 232 173 214 221 234 216 243 281 222 218 237 240 154 213 245 255 257 260 269 275 277 259 245 251 246 237 243 261 264 268 265 280 301 305
148 165 169 174 171 180 187 192 191 197 212 217 220 230 231 259 260 237 228 228 212 162 241 245 253 263 266 268 270 270 268 263 255 245 247 247 250 259 228 282 301 303 302
148 155 168 174 178 183 183 189 194 186 197 207 218 223 224 229 241 215 185 163 215 214 227 230 257 263 269 268 265 261 262 253 240 252 243 240 240 254 264 283 296 303 304
159 164 168 169 176 179 180 181 184 185 208 216 213 200 216 244 259 192 176 234 227 259 241 243 250 261 262 256 253 258 268 269 273 252 238 234 227 246 271 279 289 275 282
180 153 160 168 165 179 182 183 184 194 211 222 238 250 224 200 240 220 209 213 231 250 243 247 248 248 243 247 256 257 259 253 250 244 243 228 244 258 269 272 283 298 300
158 159 162 162 171 178 184 181 191 203 219 226 236 239 233 245 279 286 255 188 216 241 243 248 251 241 231 231 243 251 269 287 270 241 237 249 263 260 252 264 278 286 292
158 161 166 163 168 181 183 189 197 213 224 227 243 242 184 243 256 263 235 225 244 223 235 238 244 233 229 240 262 282 286 277 262 243 246 257 255 253 260 268 278 286 292
170 162 158 163 174 168 182 184 193 206 221 240 254 268 293 269 275 267 250 240 231 222 206 211 212 211 201 230 267 281 280 277 265 256 252 254 254 255 259 269 282 289 289
162 151 165 170 179 179 189 194 206 216 228 231 223 259 289 296 276 249 242 227 220 219 209 218 230 237 219 257 275 272 264 269 270 259 256 263 261 242 250 269 281 287 283
161 165 171 168 172 192 199 221 226 224 213 216 197 192 247 247 238 217 219 240 256 251 230 229 228 235 252 268 287 290 304 187 259 300 255 251 254 264 271 279 282 279 277
161 167 161 167 178 175 167 167 175 183 180 180 177 220 237 222 211 251 270 271 269 260 258 235 233 243 262 278 277 340 352 217 231 229 249 240 253 263 270 274 272 273 276